ONEWEB-0031 (45431 NORAD) Tracking and Keplerian Element Data

This shows tracking and keplerian element data for the satellite.

Feedback or suggestion? Click here.




ElementValue
Catalog45431
NameONEWEB-0031
Epoch Orbit157
Epoch Day93.91667824
Epoch Year2020
RAAN134.5788
Inclination87.3992
Eccentricity0.0023936
Argument of Perigee259.1636
Mean Anonmoly323.7494
Mean Motion15.37698572
Decay Rate0.00044192
L11 45431U 20020H 20093.91667824 .00044192 00000-0 11776-2 0 9992
L22 45431 87.3992 134.5788 0023936 259.1636 323.7494 15.37698572 1576

Live tracking and technical data element details for ONEWEB-0031 (NORAD 45431). ONEWEB-0031 can be tracked NOW for your location showing map with azimuth and elevation plus other details from your city location.

Track the satellite on the map from your city or location and see movement details for azimuth, elevation, latitude, longitude, range, height, and movement on the map or in text.







IsCatalogInMostPopularTable: catalog: 45431, numindb: 4
Update: records affected: 1



GetName: 45431 ONEWEB-0031

Hit Count: updated at: Tue, 07 Apr 2020 16:46:32 GMT